DELTA 1 DEB

Satellite information

Favourite Embed

Satellite Type and Status

DEBRISIN ORBIT

Key statistics

Satellite DELTA 1 DEB at a glance.

Uptime

17451

Days in orbit

Revolutions

≈ 14.5

Per day

Orbit

SSO

Sun Synchronous Orbit

Inclination

99.1

Latest

Satellite identification and parameters

Extended collection of information and parameters for DELTA 1 DEB.

Object identification

Identified? True

Debris? True

Object name: DELTA 1 DEB

International designator: 1978-026DW

Object number (NORAD): 12278

Object ID (CCSDS): 12278

Country: UNITED STATES OF AMERICA (US)

Current information (Y/N): Y

RCS size: SMALL

Orbital parameters

Period: 99.623 minutes

Inclination: 99.1286 deg

SMA: 7118.708 km

Apoapsis: 768.113 km

Periapsis: 713.032 km

RAAN: 160.1628 deg

Eccentricy: 0.00386876

Argument of periapsis: 143.2834 deg

Mean anomaly: 274.626 deg

Mean motion: 14.45443107 rev/day

Mean motion (dot): 0.0000729 rev/day2

B* drag term: 0.0020635915 1/REarth

Two-line elements (TLE)

Creation date: Dec. 14, 2025, 3:07 a.m.

Reference frame: TEME

Reference center: EARTH

Epoch: Dec. 13, 2025, 10:11 a.m. UTC

TLE line 0: 0 DELTA 1 DEB

TLE line 1: 1 12278U 78026DW 25347.42480067 .00007290 00000-0 20636-2 0 9992

TLE line 2: 2 12278 99.1286 160.1628 0038688 143.2834 274.6260 14.45443107316357

Live tracking on map

Real-time ground track for satellite DELTA 1 DEB.

In-orbit conjunctions

A list of the most updated potential collisions computed for object DELTA 1 DEB.

Target Orbit TCA Probability of collision Miss distance Type
CZ-6A DEB LEO 2025-11-18 23:35:56 0.000155245 124.0 (m) DEBRIS
FENGYUN 1C DEB SSO 2025-07-28 15:07:42 0.0004966536 41.0 (m) DEBRIS
IRIDIUM 29 LEO 2025-01-12 13:31:49 0.001092307 179.0 (m) PAYLOAD

Associated space launch

Earth observation satellite

DELTA 1 DEB was lifted into orbit during the mission ‘Delta 2910 | Landsat 3’, on board a Delta 2910 space rocket.

The launch took place on March 5, 1978, 5:54 p.m. from Space Launch Complex 2W.

For more information about the launch, click the button.

Launch to space Delta 2910 | Landsat 3
Delta 2910 | Landsat 3

Agency: N/A

Status: Launch Successful

Launch date: March 5, 1978, 5:54 p.m. UTC

Rocket: Delta 2910

Launch pad: Space Launch Complex 2W

Location: Vandenberg SFB, CA, USA

...

Latest news about this satellite

There are no fresh news available about this satellite. Check back as we update our databases every day.


Newsletter sign-up

Weekly statistics, charts and insights to help you stay on top of the space industry.